Weather History for Whiting Fld NAS, FL

Change the Weather History Date:

Sunday, December 30, 2012

  Actual Average Record
Temperature  
Mean Temperature 42 °F -  
Max Temperature 55 °F 58 °F 78 °F (1996)
Min Temperature 30 °F 41 °F 30 °F (2012)
Degree Days  
Heating Degree Days 22    
Moisture  
Dew Point 25 °F    
Average Humidity 56    
Maximum Humidity 75    
Minimum Humidity 29    
Precipitation  
Precipitation 0.00 in - - ()
Sea Level Pressure  
Sea Level Pressure 30.38 in    
Wind  
Wind Speed 5 mph (North)    
Max Wind Speed 8 mph    
Max Gust Speed -    
Visibility 10 miles    
Events      
Averages and records for this station are not official NWS values.
T = Trace of Precipitation, MM = Missing Value Source: NWS Daily Summary

Daily Weather History Graph

Daily Weather History Graph

Search for Another Location

Airport:

Trip Planner

Search our weather history database for the weather conditions in past years. The results will help you decide how hot, cold, wet, or windy it might be!

Date:

Astronomy

Dec. 30, 2012 Rise Set
Actual Time 6:45 AM CST 4:56 PM CST
Civil Twilight 6:18 AM CST 5:23 PM CST
Nautical Twilight 5:48 AM CST 5:53 PM CST
Astronomical Twilight 5:19 AM CST 6:22 PM CST
Moon 7:16 PM CST (12/30) 8:03 AM CST (12/30)
Length of Visible Light 11h 04m
Length of Day
10h 11m
Waning Gibbous, 95% of the Moon is Illuminated
Dec 30
Waning Gibbous
Jan 4
Last Quarter
Jan 11
New
Jan 18
First Quarter
Jan 26
Full

Hourly Weather History & Observations

Time (CST) Temp. Windchill Dew Point Humidity Pressure Visibility Wind Dir Wind Speed Gust Speed Precip Events Conditions
12:56 AM 37.0 °F 32.4 °F 25.0 °F 62% 30.33 in 10.0 mi North 5.8 mph - N/A   Clear
1:56 AM 35.1 °F 29.3 °F 24.1 °F 64% 30.35 in 10.0 mi North 6.9 mph - N/A   Clear
2:56 AM 33.1 °F 27.7 °F 21.9 °F 64% 30.36 in 10.0 mi North 5.8 mph - N/A   Clear
3:56 AM 32.0 °F 27.5 °F 21.9 °F 66% 30.37 in 10.0 mi NNW 4.6 mph - N/A   Clear
4:56 AM 30.9 °F 26.2 °F 21.9 °F 69% 30.38 in 9.0 mi North 4.6 mph - N/A   Clear
5:56 AM 30.9 °F 26.2 °F 21.9 °F 69% 30.40 in 8.0 mi NNW 4.6 mph - N/A   Clear
6:56 AM 30.0 °F 25.2 °F 21.9 °F 72% 30.41 in 6.0 mi North 4.6 mph - N/A   Haze
7:56 AM 34.0 °F 28.8 °F 23.0 °F 64% 30.45 in 8.0 mi North 5.8 mph - N/A   Clear
8:56 AM 37.9 °F 34.4 °F 24.1 °F 57% 30.47 in 9.0 mi Variable 4.6 mph - N/A   Clear
9:56 AM 41.0 °F 37.1 °F 24.1 °F 51% 30.46 in 10.0 mi Variable 5.8 mph - N/A   Clear
10:56 AM 45.0 °F 40.6 °F 24.1 °F 44% 30.45 in 10.0 mi NE 8.1 mph - N/A   Clear
11:56 AM 48.9 °F - 24.1 °F 38% 30.41 in 10.0 mi NE 5.8 mph - N/A   Clear
12:56 PM 52.0 °F - 24.1 °F 34% 30.38 in 10.0 mi NE 6.9 mph - N/A   Clear
1:56 PM 54.0 °F - 24.1 °F 31% 30.34 in 10.0 mi NNE 4.6 mph - N/A   Clear
2:56 PM 55.9 °F - 24.1 °F 29% 30.34 in 10.0 mi Variable 5.8 mph - N/A   Clear
3:56 PM 53.1 °F - 24.1 °F 32% 30.32 in 10.0 mi NNE 5.8 mph - N/A   Mostly Cloudy
4:56 PM 50.0 °F - 26.1 °F 39% 30.34 in 10.0 mi NNE 3.5 mph - N/A   Scattered Clouds
5:56 PM 45.0 °F - 27.0 °F 49% 30.35 in 10.0 mi Calm Calm - N/A   Partly Cloudy
6:56 PM 42.1 °F 38.4 °F 30.0 °F 62% 30.37 in 10.0 mi North 5.8 mph - N/A   Clear
7:56 PM 39.0 °F - 30.0 °F 70% 30.36 in 10.0 mi Calm Calm - N/A   Clear
8:56 PM 39.0 °F 36.8 °F 28.9 °F 67% 30.37 in 10.0 mi NNE 3.5 mph - N/A   Clear
9:56 PM 36.0 °F - 28.0 °F 73% 30.39 in 10.0 mi Calm Calm - N/A   Clear
10:56 PM 33.1 °F - 26.1 °F 75% 30.35 in 10.0 mi Calm Calm - N/A   Clear
11:56 PM 36.0 °F 33.3 °F 27.0 °F 70% 30.34 in 10.0 mi NNE 3.5 mph - N/A   Clear